Location: Butte
(46.0040°N, 112.5340°W)
Time: 04:24:45
(UTC-07:00)

Daily predictions for brighter satellites

Satellite Brightness Start Highest point End
(mag) Time Altitude Azimuth Time Altitude Azimuth Time Altitude Azimuth
CENTAUR R/B 4.0 04:17:19 31° NNE 04:17:19 31° NNE 04:20:56 10° NE
H-2A R/B 4.4 04:39:44 38° SSW 04:42:07 42° SSE 05:18:09 10° ESE
Cosmos 2263 Rocket 4.2 04:56:44 18° N 04:56:44 18° N 04:58:08 10° NNE
BREEZE-M DEB (TANK) 3.7 04:57:38 69° NE 04:57:38 69° NE 05:00:53 10° ENE
Lacrosse 5 3.9 05:01:38 19° SSE 05:01:38 19° SSE 05:03:02 10° SSE
IDEFIX/ARIANE 42P 4.2 05:04:42 10° NNE 05:09:27 33° E 05:14:11 10° SSE
CZ-4C R/B 2.9 05:13:41 53° NNW 05:15:38 81° NE 05:23:37 10° SE
Cosmos 2278 Rocket 4.3 05:12:15 10° SSE 05:16:46 25° ESE 05:21:18 10° NE
Cosmos 407 Rocket 4.4 05:22:18 37° N 05:22:18 37° N 05:25:30 10° NNE
ATLAS CENTAUR R/B 3.0 05:22:08 29° NE 05:22:11 29° NE 05:25:53 10° ESE
Cosmos 676 Rocket 3.9 05:26:37 84° E 05:26:37 84° E 05:31:46 10° NNE
SKYMED 2 3.9 05:24:25 10° SSE 05:28:23 63° E 05:28:23 63° E
Cosmos 1140 Rocket 3.6 05:28:44 44° S 05:30:19 73° ESE 05:35:28 10° NNE
Cosmos 1844 Rocket 2.5 05:31:58 57° SSW 05:33:11 89° ESE 05:38:47 10° NNE
Cosmos 1954 Rocket 3.9 05:36:04 54° SSW 05:37:18 88° ESE 05:42:32 10° NNE
PAYLOAD A 4.5 05:32:33 10° NNE 05:37:24 55° E 05:42:04 10° S
NOAA 6 4.3 05:34:45 10° NNE 05:39:57 70° ESE 05:45:07 10° S
USA 234 3.8 05:35:58 10° NE 05:41:59 40° NNW 05:43:14 37° NW
Cosmos 2181 Rocket 3.9 05:36:40 10° N 05:43:00 85° W 05:49:11 10° S
DELTA 2 R/B (1) 4.3 05:44:34 36° SSW 05:45:16 38° SSW 05:50:24 10° SE
Cosmos 1076 Rocket 3.4 05:47:18 82° SSW 05:47:18 82° SSW 05:51:27 10° S
Cosmos 1844 3.6 05:43:19 20° SSW 05:47:28 88° ESE 05:53:11 10° NNE
COSMOS 2455 3.3 05:48:32 40° NW 05:48:32 40° NW 05:53:55 10° NNE
Cosmos 1023 Rocket 4.3 05:48:47 44° SW 05:50:24 76° WNW 05:55:33 10° NNE
Cosmos 2082 Rocket 3.5 05:50:47 11° NNW 05:55:52 37° NE 06:01:02 10° ESE
Cosmos 371 Rocket 3.2 05:56:01 34° NNW 05:58:09 89° WSW 06:03:02 10° SSE
IRS-1C Rocket 4.5 05:56:30 10° N 06:01:04 41° NW 06:01:04 41° NW
ATLAS 3B R/B 4.4 06:00:07 14° NNW 06:02:40 17° N 06:06:57 10° NE
Cosmos 1570 Rocket 4.0 05:59:15 20° NNW 06:02:59 81° ENE 06:08:12 10° SSE
COSMOS 2406 3.4 06:02:40 42° W 06:03:30 45° WSW 06:08:50 10° S
SL-08 ROCKET BODY 4.2 05:58:34 10° SSW 06:04:25 75° W 06:10:21 10° N
Cosmos 1626 2.4 06:03:07 20° N 06:05:32 67° E 06:09:14 10° SSE
CENTAUR R/B 3.7 06:04:30 25° NW 06:05:51 26° NNW 06:11:55 10° NNE
Abrixas rocket 2.1 06:07:51 81° ENE 06:07:51 81° ENE 06:11:00 10° ESE
SL-14 R/B 4.2 06:09:10 32° SSW 06:09:10 32° SSW 06:11:31 10° SSW
Okean 3 Rocket 3.7 06:08:38 48° W 06:08:38 48° W 06:12:52 10° SSW
Cosmos 1766 Rocket 3.4 06:05:10 15° N 06:08:50 87° W 06:13:14 10° S
Okean-O 2.5 06:09:59 10° N 06:14:24 64° WNW 06:18:46 10° SSW
CZ-3B R/B 3.6 06:15:42 43° NW 06:16:42 81° NE 06:25:29 10° SE
COSMO-SKYMED 1 3.0 06:12:46 10° SSW 06:16:50 39° W 06:16:59 39° W
MSX 3.8 06:16:01 10° NNE 06:21:48 86° ESE 06:27:33 10° SSW
Radarsat Rocket 4.1 06:18:00 10° NNE 06:24:53 77° WNW 06:30:59 10° SSW
CZ-2C R/B 2.1 06:22:06 10° N 06:26:42 71° WNW 06:31:20 10° SSW
EO 1 Del DPAF 3.7 06:24:54 10° S 06:28:29 39° W 06:29:23 33° WNW
Cosmos 614 Rocket 4.3 06:25:35 20° WSW 06:28:36 39° WNW 06:33:23 10° N
Cosmos 1833 Rocket 3.1 06:23:05 10° NNW 06:28:44 65° ENE 06:34:21 10° SE
Cosmos 1315 Rocket 3.4 06:29:24 32° W 06:29:29 32° W 06:33:04 10° SSW
CZ-4B R/B 4.4 06:25:32 10° N 06:28:30 21° NW 06:28:30 21° NW
Cosmos 1741 Rocket 3.9 06:24:40 10° SSW 06:29:55 74° WNW 06:35:11 10° NNE
Cosmos 1842 Rocket 4.4 06:28:28 10° S 06:32:49 53° E 06:37:12 10° NNE
Ariane Rocket 4.5 06:29:39 10° NNE 06:34:29 40° E 06:39:16 10° SSE
Shenzhou-11 Module 2.9 06:35:45 24° SW 06:37:06 41° S 06:39:59 10° E
Cosmos 2263 Rocket 4.1 06:38:26 11° NNW 06:38:26 11° NNW 06:39:47 10° NNW
Cosmos 2184 Rocket 4.0 06:38:57 10° SSW 06:45:08 64° WNW 06:51:27 10° N
IDEFIX/ARIANE 42P 3.1 06:44:15 10° N 06:49:03 36° WNW 06:53:50 10° SW
SJ-12 4.1 06:52:03 10° N 06:56:01 47° WNW 06:59:59 10° SW
Tiangong 2 2.8 06:53:14 10° SW 06:56:06 30° SSE 06:58:58 10° E
Cosmos 304 Rocket 3.7 06:53:46 10° NNW 06:58:33 69° WSW 07:03:18 10° S
Cosmos 1610 Rocket 4.5 06:52:27 10° SSW 06:58:45 71° W 07:05:09 10° N
Cosmos-2242 3.7 06:56:04 10° SW 06:59:57 32° WNW 07:03:50 10° N
SL-12 R/B (Aux Motor) 4.5 06:55:54 15° W 07:00:04 81° N 07:02:27 10° E
Cosmos 2278 Rocket 2.3 06:54:56 10° SW 07:00:28 54° WNW 07:06:03 10° NNE
ATLAS CENTAUR R/B 2.0 06:58:25 16° WNW 07:01:13 37° WSW 07:05:12 10° S
Cosmos 1408 Rocket 4.4 06:58:17 10° NNW 07:02:01 28° W 07:05:46 10° SSW
Nadezhda 3 Rocket 4.0 06:56:29 10° NNW 07:02:50 75° W 07:09:07 10° S
CZ-4C R/B 3.9 06:58:53 14° WNW 07:03:49 27° WSW 07:10:13 10° SSW
BREEZE-M DEB (TANK) 3.9 07:05:59 14° WNW 07:09:08 88° SSW 07:21:02 10° ESE
CSL-04 Rocket 3.7 07:04:24 10° NNE 07:09:50 87° WNW 07:15:10 10° SSW
AQUARIUS 4.1 07:05:57 10° N 07:10:28 80° WNW 07:14:58 10° SSW
Thor Agena Rocket 3.8 07:05:37 10° S 07:10:41 51° W 07:15:51 10° NNW
Cosmos 540 Rocket 4.4 07:07:26 10° NNW 07:12:24 48° ENE 07:17:20 10° SE
Cosmos 1500 Rocket 3.7 07:09:57 10° NNW 07:14:18 53° W 07:18:33 10° S
Cosmos 2058 3.4 07:10:44 10° NNW 07:14:41 39° W 07:18:36 10° SSW
Cosmos 1844 Rocket 4.0 07:13:59 10° W 07:17:52 19° NW 07:21:46 10° N
SL-27 R/B 3.7 07:16:45 10° NW 07:19:49 26° WSW 07:22:53 10° SSW
Cosmos 2151 3.5 07:16:27 10° NNW 07:20:27 38° W 07:24:25 10° SSW
USA 234 4.2 07:18:18 10° ENE 07:24:03 34° N 07:29:49 10° WNW
Cosmos 1908 3.5 07:20:21 10° SSW 07:24:08 46° WNW 07:27:57 10° N
Cosmos 1743 Rocket 4.4 07:24:01 10° NNW 07:27:48 30° W 07:31:34 10° SSW
Cosmos 1814 Rocket 4.4 07:28:44 10° NNW 07:33:42 45° WSW 07:38:35 10° S
MONITOR-E 4.5 07:31:21 10° NNE 07:34:25 71° ESE 07:37:25 10° S
